Station Historical Data
Daily Summary for June 27, 2012 Units:  English    Metric   Both
« Previous Day
Next Day »
Daily Weekly Monthly Yearly Custom
  High: Low: Average:
Temperature: 95.5 °F 59.7 °F 77.9 °F
Dew Point: 60.8 °F 48.0 °F 54.2 °F
Humidity: 68% 25% 46%
Wind Speed: 7.0mph 0.0mph 2.3mph
Wind Gust: 10.0mph - -
Wind- - SE
Pressure: 29.96 in 29.82 in -
Precipitation: 0.00 in    
Historical Graphs
 
 
Tabular Data for June 27, 2012
Time Temperature Dew Point Pressure Wind Wind Speed Wind Gust Humidity Rainfall Rate (Hourly) Conditions
00:00 68.6 °F 48.7 °F 29.83 in North 2.0 mph 3.0 mph 49% 0.00 in
00:05 68.6 °F 48.7 °F 29.83 in North 2.0 mph 3.0 mph 49% 0.00 in
00:10 68.6 °F 48.7 °F 29.83 in North 1.0 mph 3.0 mph 49% 0.00 in
00:15 68.5 °F 48.1 °F 29.83 in NNE 1.0 mph 1.0 mph 48% 0.00 in
00:20 68.5 °F 48.1 °F 29.83 in North 1.0 mph 2.0 mph 48% 0.00 in
00:25 68.6 °F 48.2 °F 29.83 in NNE 1.0 mph 3.0 mph 48% 0.00 in
00:30 68.3 °F 48.4 °F 29.83 in Calm   1.0 mph 49% 0.00 in
00:35 68.0 °F 48.2 °F 29.83 in Calm   1.0 mph 49% 0.00 in
00:40 67.8 °F 48.0 °F 29.84 in Calm   1.0 mph 49% 0.00 in
00:45 67.3 °F 48.0 °F 29.84 in Calm   1.0 mph 50% 0.00 in
00:50 67.1 °F 48.4 °F 29.83 in NE 1.0 mph 1.0 mph 51% 0.00 in
00:55 67.2 °F 48.0 °F 29.83 in NE 1.0 mph 1.0 mph 50% 0.00 in
01:00 67.5 °F 48.2 °F 29.83 in NNE 1.0 mph 2.0 mph 50% 0.00 in
01:05 67.7 °F 48.4 °F 29.83 in NNE 1.0 mph 2.0 mph 50% 0.00 in
01:10 67.7 °F 48.4 °F 29.83 in NE 1.0 mph 2.0 mph 50% 0.00 in
01:15 67.7 °F 48.4 °F 29.83 in NE 1.0 mph 2.0 mph 50% 0.00 in
01:20 67.6 °F 48.3 °F 29.83 in Calm   2.0 mph 50% 0.00 in
01:25 67.3 °F 48.6 °F 29.83 in North 1.0 mph 4.0 mph 51% 0.00 in
01:31 67.0 °F 48.8 °F 29.83 in NE 1.0 mph 3.0 mph 52% 0.00 in
01:36 67.1 °F 48.9 °F 29.83 in NE 3.0 mph 5.0 mph 52% 0.00 in
01:41 67.3 °F 49.1 °F 29.83 in NNE 2.0 mph 6.0 mph 52% 0.00 in
01:46 67.3 °F 49.1 °F 29.83 in NE 3.0 mph 5.0 mph 52% 0.00 in
01:51 67.5 °F 49.3 °F 29.83 in NE 4.0 mph 4.0 mph 52% 0.00 in
01:56 67.9 °F 49.1 °F 29.83 in NE 3.0 mph 6.0 mph 51% 0.00 in
02:01 67.9 °F 49.1 °F 29.83 in NNE 4.0 mph 4.0 mph 51% 0.00 in
02:06 67.9 °F 49.1 °F 29.83 in NNE 2.0 mph 4.0 mph 51% 0.00 in
02:11 67.7 °F 49.5 °F 29.83 in NE 1.0 mph 4.0 mph 52% 0.00 in
02:16 67.4 °F 49.2 °F 29.83 in NE 3.0 mph 3.0 mph 52% 0.00 in
02:21 67.3 °F 49.1 °F 29.83 in NNE 3.0 mph 5.0 mph 52% 0.00 in
02:26 67.2 °F 49.5 °F 29.83 in NNW 2.0 mph 4.0 mph 53% 0.00 in
02:31 67.1 °F 49.4 °F 29.82 in North 4.0 mph 6.0 mph 53% 0.00 in
02:36 67.2 °F 49.5 °F 29.82 in NE 3.0 mph 5.0 mph 53% 0.00 in
02:41 67.3 °F 49.1 °F 29.82 in NE 4.0 mph 5.0 mph 52% 0.00 in
02:46 67.5 °F 49.3 °F 29.82 in NE 3.0 mph 5.0 mph 52% 0.00 in
02:51 67.4 °F 49.2 °F 29.82 in NE 3.0 mph 5.0 mph 52% 0.00 in
02:56 67.3 °F 49.1 °F 29.82 in NE 4.0 mph 4.0 mph 52% 0.00 in
03:01 67.2 °F 49.0 °F 29.83 in NE 4.0 mph 5.0 mph 52% 0.00 in
03:06 67.0 °F 49.3 °F 29.82 in NE 2.0 mph 6.0 mph 53% 0.00 in
03:11 66.9 °F 49.2 °F 29.82 in NE 2.0 mph 4.0 mph 53% 0.00 in
03:16 66.9 °F 49.2 °F 29.82 in NNE 3.0 mph 5.0 mph 53% 0.00 in
03:21 66.9 °F 49.2 °F 29.82 in NNE 2.0 mph 4.0 mph 53% 0.00 in
03:27 66.6 °F 49.0 °F 29.83 in NNE 2.0 mph 4.0 mph 53% 0.00 in
03:32 66.2 °F 49.1 °F 29.83 in NNE 2.0 mph 4.0 mph 54% 0.00 in
03:37 66.0 °F 48.9 °F 29.83 in NNE 4.0 mph 4.0 mph 54% 0.00 in
03:42 65.8 °F 49.2 °F 29.83 in NNE 1.0 mph 2.0 mph 55% 0.00 in
03:47 65.4 °F 48.8 °F 29.83 in NNE 2.0 mph 4.0 mph 55% 0.00 in
03:52 65.4 °F 49.3 °F 29.83 in NNE 1.0 mph 3.0 mph 56% 0.00 in
03:57 65.3 °F 49.2 °F 29.83 in NE 1.0 mph 3.0 mph 56% 0.00 in
04:02 65.3 °F 49.2 °F 29.83 in NE 2.0 mph 3.0 mph 56% 0.00 in
04:07 65.5 °F 48.9 °F 29.83 in NE 1.0 mph 3.0 mph 55% 0.00 in
04:12 65.5 °F 48.9 °F 29.83 in NE 1.0 mph 3.0 mph 55% 0.00 in
04:17 65.2 °F 49.1 °F 29.83 in Calm   1.0 mph 56% 0.00 in
04:22 65.1 °F 49.0 °F 29.83 in NE 3.0 mph 3.0 mph 56% 0.00 in
04:27 65.2 °F 49.1 °F 29.83 in NE 2.0 mph 3.0 mph 56% 0.00 in
04:32 65.2 °F 49.1 °F 29.83 in ENE 2.0 mph 3.0 mph 56% 0.00 in
04:37 65.2 °F 49.1 °F 29.83 in NE 3.0 mph 3.0 mph 56% 0.00 in
04:42 65.2 °F 49.1 °F 29.83 in NE 1.0 mph 3.0 mph 56% 0.00 in
04:47 65.0 °F 48.9 °F 29.83 in Calm   3.0 mph 56% 0.00 in
04:52 64.7 °F 49.1 °F 29.83 in ENE 1.0 mph 3.0 mph 57% 0.00 in
04:57 64.6 °F 49.0 °F 29.83 in Calm   2.0 mph 57% 0.00 in
05:02 64.6 °F 49.0 °F 29.83 in Calm   2.0 mph 57% 0.00 in
05:07 64.3 °F 49.2 °F 29.83 in ENE 1.0 mph 2.0 mph 58% 0.00 in
05:12 64.2 °F 49.1 °F 29.83 in NE 1.0 mph 3.0 mph 58% 0.00 in
05:17 64.1 °F 49.0 °F 29.83 in NE 2.0 mph 4.0 mph 58% 0.00 in
05:22 63.8 °F 49.2 °F 29.83 in NE 1.0 mph 2.0 mph 59% 0.00 in
05:27 63.5 °F 48.9 °F 29.83 in NNE 3.0 mph 3.0 mph 59% 0.00 in
05:32 63.5 °F 49.4 °F 29.84 in NNE 1.0 mph 3.0 mph 60% 0.00 in
05:37 63.3 °F 49.2 °F 29.84 in Calm   1.0 mph 60% 0.00 in
05:42 62.5 °F 49.3 °F 29.84 in NNE 2.0 mph 2.0 mph 62% 0.00 in
05:47 62.3 °F 49.1 °F 29.84 in NNE 3.0 mph 3.0 mph 62% 0.00 in
05:52 62.6 °F 49.4 °F 29.84 in North 2.0 mph 3.0 mph 62% 0.00 in
05:57 62.6 °F 49.4 °F 29.85 in NNE 3.0 mph 3.0 mph 62% 0.00 in
06:02 62.4 °F 49.2 °F 29.85 in NNE 1.0 mph 3.0 mph 62% 0.00 in
06:07 62.2 °F 49.5 °F 29.86 in NNE 3.0 mph 3.0 mph 63% 0.00 in
06:12 62.0 °F 49.3 °F 29.86 in NNE 1.0 mph 2.0 mph 63% 0.00 in
06:17 61.8 °F 49.1 °F 29.87 in NE 2.0 mph 2.0 mph 63% 0.00 in
06:22 61.6 °F 49.3 °F 29.87 in Calm   2.0 mph 64% 0.00 in
06:27 61.2 °F 49.3 °F 29.88 in Calm     65% 0.00 in
06:33 60.6 °F 49.2 °F 29.88 in Calm     66% 0.00 in
06:38 60.3 °F 49.3 °F 29.88 in Calm     67% 0.00 in
06:43 60.0 °F 49.4 °F 29.89 in North 2.0 mph 2.0 mph 68% 0.00 in
06:48 59.7 °F 49.1 °F 29.89 in NNE 2.0 mph 2.0 mph 68% 0.00 in
06:53 60.1 °F 49.5 °F 29.89 in NNW 1.0 mph 3.0 mph 68% 0.00 in
06:58 60.8 °F 49.8 °F 29.89 in NE 5.0 mph 5.0 mph 67% 0.00 in
07:03 61.4 °F 50.0 °F 29.89 in NNE 4.0 mph 4.0 mph 66% 0.00 in
07:08 62.2 °F 49.9 °F 29.89 in NE 1.0 mph 3.0 mph 64% 0.00 in
07:13 62.8 °F 50.0 °F 29.89 in NE 3.0 mph 3.0 mph 63% 0.00 in
07:18 63.3 °F 50.1 °F 29.89 in NNE 2.0 mph 4.0 mph 62% 0.00 in
07:23 63.7 °F 50.5 °F 29.90 in NNE 1.0 mph 2.0 mph 62% 0.00 in
07:28 64.1 °F 50.8 °F 29.90 in NE 2.0 mph 3.0 mph 62% 0.00 in
07:33 64.2 °F 50.9 °F 29.90 in NE 1.0 mph 3.0 mph 62% 0.00 in
07:38 64.6 °F 51.3 °F 29.91 in NNE 1.0 mph 1.0 mph 62% 0.00 in
07:43 65.0 °F 51.2 °F 29.91 in NNE 3.0 mph 3.0 mph 61% 0.00 in
07:48 65.0 °F 51.7 °F 29.91 in NE 3.0 mph 4.0 mph 62% 0.00 in
07:53 65.1 °F 51.8 °F 29.91 in NNE 2.0 mph 4.0 mph 62% 0.00 in
07:58 65.4 °F 51.6 °F 29.91 in NE 4.0 mph 4.0 mph 61% 0.00 in
08:03 65.7 °F 51.9 °F 29.91 in NNE 3.0 mph 6.0 mph 61% 0.00 in
08:08 66.1 °F 51.8 °F 29.91 in NE 3.0 mph 6.0 mph 60% 0.00 in
08:13 66.6 °F 52.3 °F 29.91 in NE 3.0 mph 5.0 mph 60% 0.00 in
08:18 67.1 °F 52.3 °F 29.92 in NNE 3.0 mph 5.0 mph 59% 0.00 in
08:23 67.7 °F 51.9 °F 29.92 in NE 3.0 mph 7.0 mph 57% 0.00 in
08:28 68.3 °F 52.5 °F 29.92 in ENE 6.0 mph 9.0 mph 57% 0.00 in
08:33 68.9 °F 53.1 °F 29.93 in NE 2.0 mph 6.0 mph 57% 0.00 in
08:38 69.3 °F 53.0 °F 29.93 in NE 3.0 mph 6.0 mph 56% 0.00 in
08:43 69.6 °F 52.7 °F 29.93 in NE 5.0 mph 7.0 mph 55% 0.00 in
08:48 69.9 °F 53.5 °F 29.93 in NE 4.0 mph 8.0 mph 56% 0.00 in
08:53 70.2 °F 52.8 °F 29.93 in NE 7.0 mph 9.0 mph 54% 0.00 in
08:58 70.8 °F 53.8 °F 29.94 in NNE 2.0 mph 7.0 mph 55% 0.00 in
09:03 71.4 °F 53.9 °F 29.94 in East 2.0 mph 6.0 mph 54% 0.00 in
09:08 71.9 °F 53.9 °F 29.94 in East 4.0 mph 7.0 mph 53% 0.00 in
09:13 72.3 °F 53.7 °F 29.94 in ESE 5.0 mph 6.0 mph 52% 0.00 in
09:18 72.6 °F 54.0 °F 29.94 in ENE 4.0 mph 6.0 mph 52% 0.00 in
09:24 73.0 °F 53.8 °F 29.94 in East 6.0 mph 9.0 mph 51% 0.00 in
09:28 73.1 °F 53.9 °F 29.94 in ESE 4.0 mph 7.0 mph 51% 0.00 in
09:33 73.5 °F 54.8 °F 29.94 in ENE 2.0 mph 7.0 mph 52% 0.00 in
09:38 74.0 °F 54.7 °F 29.94 in East 2.0 mph 6.0 mph 51% 0.00 in
09:44 74.5 °F 55.7 °F 29.94 in ESE 3.0 mph 5.0 mph 52% 0.00 in
09:49 75.1 °F 54.7 °F 29.94 in East 4.0 mph 8.0 mph 49% 0.00 in
09:54 75.0 °F 54.6 °F 29.94 in East 4.0 mph 7.0 mph 49% 0.00 in
09:59 75.2 °F 54.8 °F 29.94 in SE 3.0 mph 9.0 mph 49% 0.00 in
10:04 75.8 °F 55.3 °F 29.94 in ESE 5.0 mph 7.0 mph 49% 0.00 in
10:09 76.2 °F 55.1 °F 29.95 in East 7.0 mph 8.0 mph 48% 0.00 in
10:14 76.4 °F 55.3 °F 29.95 in SE 2.0 mph 7.0 mph 48% 0.00 in
10:19 76.6 °F 54.9 °F 29.95 in East 6.0 mph 9.0 mph 47% 0.00 in
10:24 77.3 °F 56.1 °F 29.95 in SE 4.0 mph 8.0 mph 48% 0.00 in
10:29 77.3 °F 55.5 °F 29.95 in East 7.0 mph 9.0 mph 47% 0.00 in
10:34 77.2 °F 55.4 °F 29.95 in ESE 3.0 mph 8.0 mph 47% 0.00 in
10:39 77.6 °F 57.0 °F 29.95 in East 4.0 mph 6.0 mph 49% 0.00 in
10:44 77.8 °F 56.6 °F 29.96 in ESE 7.0 mph 7.0 mph 48% 0.00 in
10:49 77.9 °F 56.1 °F 29.95 in East 4.0 mph 8.0 mph 47% 0.00 in
10:54 78.0 °F 56.2 °F 29.95 in ESE 2.0 mph 6.0 mph 47% 0.00 in
10:59 78.5 °F 56.6 °F 29.96 in SE 3.0 mph 8.0 mph 47% 0.00 in
11:04 78.8 °F 56.9 °F 29.96 in SE 2.0 mph 7.0 mph 47% 0.00 in
11:09 79.7 °F 58.9 °F 29.96 in ESE 5.0 mph 9.0 mph 49% 0.00 in
11:14 80.0 °F 57.4 °F 29.96 in SE 2.0 mph 6.0 mph 46% 0.00 in
11:19 80.1 °F 56.9 °F 29.96 in SSW 2.0 mph 8.0 mph 45% 0.00 in
11:24 80.3 °F 57.0 °F 29.96 in ESE 6.0 mph 7.0 mph 45% 0.00 in
11:29 80.2 °F 57.6 °F 29.96 in SE 2.0 mph 8.0 mph 46% 0.00 in
11:34 80.4 °F 57.8 °F 29.95 in East 3.0 mph 6.0 mph 46% 0.00 in
11:39 80.8 °F 58.1 °F 29.95 in ESE 4.0 mph 6.0 mph 46% 0.00 in
11:44 81.2 °F 56.6 °F 29.95 in SSE 5.0 mph 8.0 mph 43% 0.00 in
11:49 81.7 °F 57.7 °F 29.95 in SSW 4.0 mph 6.0 mph 44% 0.00 in
11:54 82.0 °F 57.3 °F 29.96 in SE 6.0 mph 9.0 mph 43% 0.00 in
11:59 82.2 °F 58.8 °F 29.96 in SSW 4.0 mph 7.0 mph 45% 0.00 in
12:04 82.6 °F 57.2 °F 29.95 in SSW 6.0 mph 7.0 mph 42% 0.00 in
12:09 83.0 °F 59.5 °F 29.95 in West 2.0 mph 3.0 mph 45% 0.00 in
12:14 83.9 °F 58.4 °F 29.95 in SE 3.0 mph 7.0 mph 42% 0.00 in
12:19 83.6 °F 57.4 °F 29.96 in NNE 1.0 mph 5.0 mph 41% 0.00 in
12:24 83.9 °F 57.0 °F 29.96 in SSE 1.0 mph 7.0 mph 40% 0.00 in
12:29 84.4 °F 57.5 °F 29.96 in NNE 3.0 mph 3.0 mph 40% 0.00 in
12:34 84.4 °F 59.5 °F 29.96 in SSE 5.0 mph 5.0 mph 43% 0.00 in
12:40 84.7 °F 57.7 °F 29.96 in WSW 3.0 mph 5.0 mph 40% 0.00 in
12:45 85.0 °F 58.0 °F 29.96 in SSW 4.0 mph 5.0 mph 40% 0.00 in
12:50 85.2 °F 57.5 °F 29.96 in ESE 2.0 mph 3.0 mph 39% 0.00 in
12:55 85.4 °F 57.7 °F 29.96 in NW 1.0 mph 2.0 mph 39% 0.00 in
13:00 85.3 °F 57.6 °F 29.96 in WNW 3.0 mph 4.0 mph 39% 0.00 in
13:05 85.1 °F 56.7 °F 29.96 in North 3.0 mph 5.0 mph 38% 0.00 in
13:10 85.5 °F 58.5 °F 29.96 in NE 3.0 mph 3.0 mph 40% 0.00 in
13:15 86.5 °F 59.3 °F 29.96 in NNE 1.0 mph 3.0 mph 40% 0.00 in
13:20 86.9 °F 56.8 °F 29.95 in East 3.0 mph 6.0 mph 36% 0.00 in
13:25 86.5 °F 57.2 °F 29.95 in NE 4.0 mph 6.0 mph 37% 0.00 in
13:30 86.2 °F 56.9 °F 29.95 in WNW 1.0 mph 5.0 mph 37% 0.00 in
13:35 87.1 °F 56.2 °F 29.95 in ESE 7.0 mph 7.0 mph 35% 0.00 in
13:40 87.1 °F 55.4 °F 29.95 in NE 3.0 mph 6.0 mph 34% 0.00 in
13:45 86.6 °F 56.5 °F 29.95 in East 2.0 mph 3.0 mph 36% 0.00 in
13:50 87.6 °F 56.6 °F 29.95 in NE 3.0 mph 3.0 mph 35% 0.00 in
13:55 87.3 °F 54.7 °F 29.94 in East 4.0 mph 5.0 mph 33% 0.00 in
14:00 86.9 °F 54.4 °F 29.94 in SE 1.0 mph 6.0 mph 33% 0.00 in
14:05 87.5 °F 55.7 °F 29.94 in ESE 4.0 mph 8.0 mph 34% 0.00 in
14:10 87.9 °F 56.1 °F 29.94 in ENE 5.0 mph 6.0 mph 34% 0.00 in
14:15 87.7 °F 55.1 °F 29.94 in East 5.0 mph 5.0 mph 33% 0.00 in
14:20 87.8 °F 57.5 °F 29.94 in NNE 3.0 mph 7.0 mph 36% 0.00 in
14:25 87.9 °F 56.1 °F 29.94 in ESE 2.0 mph 3.0 mph 34% 0.00 in
14:30 88.1 °F 56.2 °F 29.94 in NNE 7.0 mph 8.0 mph 34% 0.00 in
14:35 88.1 °F 57.8 °F 29.93 in North 4.0 mph 4.0 mph 36% 0.00 in
14:40 88.4 °F 55.7 °F 29.93 in North 6.0 mph 6.0 mph 33% 0.00 in
14:45 88.7 °F 55.9 °F 29.93 in NNW 3.0 mph 4.0 mph 33% 0.00 in
14:50 88.8 °F 56.0 °F 29.93 in NNE 2.0 mph 5.0 mph 33% 0.00 in
14:55 89.6 °F 55.9 °F 29.93 in NW 2.0 mph 5.0 mph 32% 0.00 in
15:00 89.5 °F 56.6 °F 29.93 in North 2.0 mph 7.0 mph 33% 0.00 in
15:05 89.6 °F 55.9 °F 29.93 in NW 2.0 mph 4.0 mph 32% 0.00 in
15:10 90.1 °F 56.3 °F 29.93 in NE 5.0 mph 5.0 mph 32% 0.00 in
15:15 90.0 °F 57.1 °F 29.93 in NW 2.0 mph 5.0 mph 33% 0.00 in
15:20 90.2 °F 56.4 °F 29.92 in WNW 3.0 mph 3.0 mph 32% 0.00 in
15:26 90.5 °F 55.8 °F 29.92 in West 1.0 mph 4.0 mph 31% 0.00 in
15:31 91.4 °F 57.4 °F 29.92 in Calm   5.0 mph 32% 0.00 in
15:36 92.6 °F 57.6 °F 29.92 in SW 1.0 mph 2.0 mph 31% 0.00 in
15:41 92.7 °F 55.8 °F 29.92 in NNE 5.0 mph 6.0 mph 29% 0.00 in
15:46 91.3 °F 52.7 °F 29.92 in NE 2.0 mph 10.0 mph 27% 0.00 in
15:51 91.1 °F 56.3 °F 29.92 in NNE 2.0 mph 4.0 mph 31% 0.00 in
15:56 91.8 °F 55.0 °F 29.91 in West 1.0 mph 5.0 mph 29% 0.00 in
16:01 92.5 °F 54.7 °F 29.91 in SSW 3.0 mph 6.0 mph 28% 0.00 in
16:06 93.0 °F 57.0 °F 29.91 in ENE 2.0 mph 3.0 mph 30% 0.00 in
16:11 93.2 °F 55.3 °F 29.91 in SE 1.0 mph 4.0 mph 28% 0.00 in
16:16 93.4 °F 55.5 °F 29.91 in NE 4.0 mph 5.0 mph 28% 0.00 in
16:21 92.9 °F 53.0 °F 29.91 in SW 3.0 mph 6.0 mph 26% 0.00 in
16:26 92.7 °F 53.9 °F 29.91 in NNW 2.0 mph 5.0 mph 27% 0.00 in
16:31 92.6 °F 53.8 °F 29.91 in ENE 4.0 mph 10.0 mph 27% 0.00 in
16:36 92.5 °F 56.6 °F 29.91 in NW 5.0 mph 7.0 mph 30% 0.00 in
16:41 92.7 °F 56.8 °F 29.91 in NNW 2.0 mph 3.0 mph 30% 0.00 in
16:46 93.1 °F 55.2 °F 29.91 in NW 1.0 mph 4.0 mph 28% 0.00 in
16:51 93.6 °F 57.5 °F 29.91 in WNW 4.0 mph 4.0 mph 30% 0.00 in
16:56 93.1 °F 55.2 °F 29.91 in NW 4.0 mph 4.0 mph 28% 0.00 in
17:02 93.1 °F 54.2 °F 29.91 in WNW 4.0 mph 6.0 mph 27% 0.00 in
17:06 93.1 °F 54.2 °F 29.91 in West 2.0 mph 5.0 mph 27% 0.00 in
17:12 93.5 °F 54.5 °F 29.90 in SSW 1.0 mph 3.0 mph 27% 0.00 in
17:17 94.3 °F 54.2 °F 29.90 in WSW 2.0 mph 2.0 mph 26% 0.00 in
17:22 94.5 °F 55.4 °F 29.90 in WNW 3.0 mph 5.0 mph 27% 0.00 in
17:27 94.0 °F 55.0 °F 29.90 in NNW 2.0 mph 5.0 mph 27% 0.00 in
17:32 94.0 °F 52.9 °F 29.90 in NNW 3.0 mph 4.0 mph 25% 0.00 in
17:37 94.0 °F 55.0 °F 29.90 in NW 4.0 mph 4.0 mph 27% 0.00 in
17:42 94.3 °F 55.2 °F 29.90 in WSW 2.0 mph 2.0 mph 27% 0.00 in
17:47 94.5 °F 55.4 °F 29.90 in Calm   1.0 mph 27% 0.00 in
17:52 94.5 °F 55.4 °F 29.91 in NE 2.0 mph 3.0 mph 27% 0.00 in
17:57 94.7 °F 54.5 °F 29.91 in WSW 1.0 mph 1.0 mph 26% 0.00 in
18:02 95.5 °F 55.2 °F 29.90 in SSW 2.0 mph 3.0 mph 26% 0.00 in
18:07 95.4 °F 54.0 °F 29.90 in West 1.0 mph 3.0 mph 25% 0.00 in
18:12 95.1 °F 55.9 °F 29.90 in Calm   4.0 mph 27% 0.00 in
18:17 95.3 °F 57.1 °F 29.90 in South 5.0 mph 6.0 mph 28% 0.00 in
18:22 95.2 °F 58.0 °F 29.90 in SSW 2.0 mph 4.0 mph 29% 0.00 in
18:27 94.9 °F 56.7 °F 29.89 in SW 3.0 mph 6.0 mph 28% 0.00 in
18:32 94.5 °F 54.3 °F 29.89 in South 3.0 mph 5.0 mph 26% 0.00 in
18:37 94.4 °F 55.3 °F 29.89 in WNW 1.0 mph 3.0 mph 27% 0.00 in
18:42 94.8 °F 57.6 °F 29.89 in SE 2.0 mph 5.0 mph 29% 0.00 in
18:47 94.5 °F 55.4 °F 29.89 in SW 5.0 mph 6.0 mph 27% 0.00 in
18:52 94.0 °F 56.9 °F 29.89 in SSW 3.0 mph 7.0 mph 29% 0.00 in
18:57 94.2 °F 57.1 °F 29.89 in SW 6.0 mph 6.0 mph 29% 0.00 in
19:02 94.2 °F 56.1 °F 29.89 in South 3.0 mph 4.0 mph 28% 0.00 in
19:07 94.4 °F 56.3 °F 29.89 in WSW 2.0 mph 4.0 mph 28% 0.00 in
19:12 94.0 °F 56.9 °F 29.89 in SW 4.0 mph 5.0 mph 29% 0.00 in
19:17 93.9 °F 56.8 °F 29.89 in South 5.0 mph 5.0 mph 29% 0.00 in
19:22 93.9 °F 57.8 °F 29.90 in SW 3.0 mph 3.0 mph 30% 0.00 in
19:27 93.9 °F 57.8 °F 29.89 in SW 3.0 mph 4.0 mph 30% 0.00 in
19:32 93.6 °F 57.5 °F 29.90 in SSW 1.0 mph 3.0 mph 30% 0.00 in
19:37 93.6 °F 56.6 °F 29.90 in SSW 1.0 mph 3.0 mph 29% 0.00 in
19:42 93.7 °F 57.6 °F 29.90 in South 1.0 mph 3.0 mph 30% 0.00 in
19:47 93.5 °F 56.5 °F 29.90 in SSW 2.0 mph 4.0 mph 29% 0.00 in
19:52 93.4 °F 56.4 °F 29.90 in SSW 2.0 mph 2.0 mph 29% 0.00 in
19:57 93.3 °F 57.3 °F 29.90 in SSE 2.0 mph 3.0 mph 30% 0.00 in
20:02 92.8 °F 59.5 °F 29.90 in SSE 2.0 mph 4.0 mph 33% 0.00 in
20:08 92.0 °F 59.6 °F 29.90 in SE 2.0 mph 2.0 mph 34% 0.00 in
20:13 91.5 °F 60.8 °F 29.90 in SE 1.0 mph 2.0 mph 36% 0.00 in
20:18 91.1 °F 60.5 °F 29.90 in SE 2.0 mph 2.0 mph 36% 0.00 in
20:23 90.6 °F 60.8 °F 29.90 in SE 2.0 mph 2.0 mph 37% 0.00 in
20:28 90.2 °F 58.9 °F 29.90 in SE 3.0 mph 3.0 mph 35% 0.00 in
20:33 89.8 °F 59.3 °F 29.90 in SE 3.0 mph 3.0 mph 36% 0.00 in
20:38 89.2 °F 59.5 °F 29.90 in SE 2.0 mph 2.0 mph 37% 0.00 in
20:43 88.8 °F 59.2 °F 29.90 in ESE 2.0 mph 3.0 mph 37% 0.00 in
20:48 88.3 °F 59.5 °F 29.90 in SE 2.0 mph 3.0 mph 38% 0.00 in
20:53 87.5 °F 58.8 °F 29.90 in SE 2.0 mph 3.0 mph 38% 0.00 in
20:58 86.7 °F 58.8 °F 29.91 in SE 2.0 mph 2.0 mph 39% 0.00 in
21:03 86.0 °F 59.6 °F 29.91 in Calm   3.0 mph 41% 0.00 in
21:08 84.8 °F 59.2 °F 29.91 in Calm   1.0 mph 42% 0.00 in
21:13 83.7 °F 59.5 °F 29.90 in Calm     44% 0.00 in
21:18 82.9 °F 59.4 °F 29.91 in Calm   1.0 mph 45% 0.00 in
21:23 82.5 °F 59.0 °F 29.91 in SE 1.0 mph 1.0 mph 45% 0.00 in
21:28 82.0 °F 58.6 °F 29.91 in Calm   1.0 mph 45% 0.00 in
21:33 81.3 °F 59.2 °F 29.91 in Calm     47% 0.00 in
21:38 80.4 °F 58.9 °F 29.91 in Calm     48% 0.00 in
21:43 79.7 °F 59.4 °F 29.91 in Calm     50% 0.00 in
21:48 78.9 °F 58.1 °F 29.91 in Calm     49% 0.00 in
21:53 78.2 °F 60.2 °F 29.91 in SW 1.0 mph 1.0 mph 54% 0.00 in
21:58 77.7 °F 60.3 °F 29.91 in Calm     55% 0.00 in
22:03 77.3 °F 59.9 °F 29.91 in SW 1.0 mph 1.0 mph 55% 0.00 in
22:09 77.9 °F 58.9 °F 29.91 in Calm   1.0 mph 52% 0.00 in
22:14 78.5 °F 58.3 °F 29.91 in Calm   1.0 mph 50% 0.00 in
22:19 78.5 °F 60.5 °F 29.91 in Calm     54% 0.00 in
22:24 77.5 °F 59.0 °F 29.92 in Calm     53% 0.00 in
22:29 76.8 °F 58.9 °F 29.92 in Calm     54% 0.00 in
22:34 76.2 °F 58.9 °F 29.92 in Calm     55% 0.00 in
22:39 75.9 °F 58.6 °F 29.92 in Calm     55% 0.00 in
22:44 75.6 °F 57.8 °F 29.92 in Calm     54% 0.00 in
22:49 75.5 °F 59.2 °F 29.92 in Calm     57% 0.00 in
22:54 75.4 °F 59.1 °F 29.92 in Calm     57% 0.00 in
22:59 74.9 °F 58.7 °F 29.93 in Calm     57% 0.00 in
23:04 74.3 °F 59.1 °F 29.93 in Calm     59% 0.00 in
23:09 74.8 °F 58.6 °F 29.92 in Calm     57% 0.00 in
23:14 75.3 °F 60.5 °F 29.93 in SW 1.0 mph 1.0 mph 60% 0.00 in
23:19 74.8 °F 59.0 °F 29.93 in Calm   1.0 mph 58% 0.00 in
23:24 74.5 °F 58.8 °F 29.93 in Calm     58% 0.00 in
23:29 73.9 °F 59.2 °F 29.93 in Calm     60% 0.00 in
23:34 73.5 °F 58.3 °F 29.93 in Calm     59% 0.00 in
23:39 73.0 °F 58.3 °F 29.93 in Calm     60% 0.00 in
23:44 72.4 °F 58.7 °F 29.93 in Calm     62% 0.00 in
23:49 72.6 °F 59.3 °F 29.93 in SW 1.0 mph 1.0 mph 63% 0.00 in
23:54 72.0 °F 60.5 °F 29.94 in WNW 1.0 mph 2.0 mph 67% 0.00 in
23:59 71.8 °F 60.7 °F 29.94 in Calm   1.0 mph 68% 0.00 in
Compliments of Weather Underground